This site uses a module created by best online poker sites.

BSB police report ending August 9, 2018

Print
"08/08/2018","00:25","218CR0019943","ALL OTHER","ALL OTHER","225 N ALASKA","",""
"08/08/2018","01:05","218CR0019944","T/S","T/S","600 W PARK","",""
"08/08/2018","01:15","218CR0019945","SUSPICIOUS ACTIVITY","SUSPICIOUS ACTIVITY","2124 ABERDEEN","",""
"08/08/2018","01:16","218CR0019946","SUSPICIOUS ACTIVITY","SUSPICIOUS ACTIVITY","700 BLK N WYOMING","",""
"08/08/2018","01:23","218CR0019947","THEFT","THEFT, ALL OTHERS","1706 HOBSON","",""
"08/08/2018","02:03","218CR0019948","T/S","HABITUAL OFFENDER OPER. VEH","CENTENNIAL AND EXCELSIOR","ARREST(s) MADE",""
"08/08/2018","02:15","218CR0019949","ALARM - BURGLARY","CRIMINAL MISCHIEF","1 E BROADWAY","ARREST(s) MADE",""
"08/08/2018","02:15","218CR0019950","SUSPICIOUS ACTIVITY","SUSPICIOUS ACTIVITY","ROSALIE MANOR","",""
"08/08/2018","02:49","218CR0019951","T/S","DRIVE WHILE SUSP. OR REVOKED","GRANITE AND WYOMING","",""
"08/08/2018","03:07","218CR0019952","SUSPICIOUS ACTIVITY","SUSPICIOUS ACTIVITY","1701 HARRISON AV","",""
"08/08/2018","04:36","218CR0019953","MEDICAL - EMERGENCY","MEDICAL - EMERGENCY","2000 YALE AVE","",""
"08/08/2018","04:38","218CR0019954","T/S","T/S","PLATNIUM AND MONTANA","",""
"08/08/2018","05:13","218CR0019955","SUSPICIOUS ACTIVITY","SUSPICIOUS ACTIVITY","2300 BLK SOUTH DRIVE","",""
"08/08/2018","05:18","218CR0019956","INFORMATION ONLY","INFORMATION ONLY","MISSOULA","",""
"08/08/2018","06:10","218CR0019957","VANDALISM/CRIMINAL MISCHIEF","CRIMINAL MISCHIEF","2975 WASHOE ST","",""
"08/08/2018","07:08","218CR0019958","T/S","T/S","GEORGE AND LOWELL","",""
"08/08/2018","07:23","218CR0019959","CIVIL PAPER SERVICE","CIVIL PAPER SERVICE","133 W PACIFIC","",""
"08/08/2018","07:32","218CR0019961","PARKING COMPLAINT","PARKING COMPLAINT","1119 W PLATINUM","",""
"08/08/2018","07:38","218CR0019962","ACCIDENT","ACCIDENT","2610 AMHERST","",""
"08/08/2018","07:55","218CR0019963","CIVIL PAPER SERVICE","CIVIL PAPER SERVICE","910 EVANS APT B4","",""
"08/08/2018","08:04","218CR0019964","CIVIL PAPER SERVICE","CIVIL PAPER SERVICE","1714 SAMPSON","",""
"08/08/2018","08:09","218CR0019965","T/S","T/S","QUARTZ AND MAIN","",""
"08/08/2018","08:14","218CR0019966","CIVIL PAPER SERVICE","CIVIL PAPER SERVICE","2609 HARRISON","",""
"08/08/2018","08:28","218CR0019967","CIVIL PAPER SERVICE","CIVIL PAPER SERVICE","151 W DALY","",""
"08/08/2018","08:32","218CR0019968","CIVIL PAPER SERVICE","CIVIL PAPER SERVICE","6 GLADSTONE TER","",""
"08/08/2018","08:41","218CR0019969","CIVIL PAPER SERVICE","CIVIL PAPER SERVICE","721 PLACER ST","",""
"08/08/2018","08:41","218CR0019970","CIVIL PAPER SERVICE","CIVIL PAPER SERVICE","1285 HARRISON AVE","",""
"08/08/2018","09:24","218CR0019971","CIVIL PAPER SERVICE","CIVIL PAPER SERVICE","2618 PINE","",""
"08/08/2018","09:40","218CR0019972","VANDALISM/CRIMINAL MISCHIEF","CRIMINAL MISCHIEF","1902 S UTAH","",""
"08/08/2018","09:59","218CR0019973","SUSPICIOUS ACTIVITY","SUSPICIOUS ACTIVITY","1000 S EXCELSIOR SWISS ALPS","",""
"08/08/2018","10:23","218CR0019974","ALARM - BURGLARY","ALARM - BURGLARY","************","",""
"08/08/2018","10:43","218CR0019975","T/S","T/S @ ELIZABETH WARREN AND GREEN LAN","ELIZABETH WARREN AND GREEN LAN","",""
"08/08/2018","10:55","218CR0019976","ABANDONED VEHICLE","ABANDONED VEHICLE","DEWEY AND ROWE","",""
"08/08/2018","11:05","218CR0019977","DISTURBANCE-NOISE","DISTURBANCE-NOISE","205 W GRANITE","",""
"08/08/2018","11:08","218CR0019978","ACCIDENT","CARELESS DRIVING","1900 BLK S MONTANA","",""
"08/08/2018","11:13","218CR0019979","MEDICAL - EMERGENCY","MEDICAL - EMERGENCY","716 NEVADA","",""
"08/08/2018","11:26","218CR0019980","LED BUSINESS","LED BUSINESS","155 W GRANITE ST","",""
"08/08/2018","11:29","218CR0019981","TRAFFIC HAZARD","TRAFFIC HAZARD","504 W PARK ST","",""
"08/08/2018","11:36","218CR0019982","THEFT","THEFT","LITHIA DODGE 3883 HARRISON AVE","",""
"08/08/2018","11:36","218CR0019983","THEFT","THEFT","3941 WYNNE","",""
"08/08/2018","11:52","218CR0019984","SUSPICIOUS ACTIVITY","SUSPICIOUS ACTIVITY","OHIO AND E PARK","",""
"08/08/2018","12:00","218CR0019985","TRAFFIC HAZARD","TRAFFIC HAZARD","1100 BLK W GOLD ST","",""
"08/08/2018","12:07","218CR0019986","LED BUSINESS","LED BUSINESS","EMMETT AND 2ND","",""
"08/08/2018","12:20","218CR0019987","CIVIL PAPER SERVICE","CIVIL PAPER SERVICE","225 N ALASKA","",""
"08/08/2018","12:42","218CR0019988","VANDALISM/CRIMINAL MISCHIEF","CRIMINAL MISCHIEF","3100 HARRISON AVE","",""
"08/08/2018","12:57","218CR0019989","ACCIDENT - INJURY","ACCIDENT - INJURY","FRONT ST AND CENTENNIAL AVE","",""
"08/08/2018","13:08","218CR0019990","MEDICAL - EMERGENCY","MEDICAL - EMERGENCY","3701 ELIZABETH WARREN","",""
"08/08/2018","13:52","218CR0019991","JUVENILE RUNAWAY","JUVENILE RUNAWAY","************","",""
"08/08/2018","13:55","218CR0019992","CIVIL PAPER SERVICE","CIVIL PAPER SERVICE","400 E FRONT SUN RENTAL","",""
"08/08/2018","14:05","218CR0019993","ALL OTHER","ALL OTHER","","",""
"08/08/2018","14:39","218CR0019994","ASSIST OTHER AGENCY","POSSESSION OF DANGEROUS DRUGS","205 W GRANITE APT 302","",""
"08/08/2018","14:48","218CR0019995","ALARM - BURGLARY","ALARM - BURGLARY","************","",""
"08/08/2018","15:07","218CR0019996","W/PRISONER","CRIMINAL CONTEMPT","126 N IDAHO","ARREST(s) MADE",""
"08/08/2018","15:43","218CR0019997","TRAFFIC","TRAFFIC","604 E ALUMINUM","",""
"08/08/2018","15:44","218CR0019998","THEFT","THEFT, ALL OTHERS","1821 CAROLINA","",""
"08/08/2018","15:46","218CR0019999","INTIMIDATION","INTIMIDATION","34 OLYMPIC WAY COPPER CANYON","",""
"08/08/2018","15:50","218CR0020000","ACCIDENT","ACCIDENT","1150 FRONT ST","",""
"08/08/2018","15:52","218CR0020001","INTOXICATED PERSON","INTOXICATED PERSON","58 W PARK ST","",""
"08/08/2018","15:53","218CR0020002","ACCIDENT","ACCIDENT","8 TULLAMORE","",""
"08/08/2018","15:57","218CR0020003","WELFARE CHECK","WELFARE CHECK","CLARKS PARK","",""
"08/08/2018","16:04","218CR0020004","UNWANTED PERSON","UNWANTED PERSON","************","",""
"08/08/2018","16:11","218CR0020005","THEFT","THEFT FROM MOTOR VEHICLE","1150 E FRONT","",""
"08/08/2018","16:15","218CR0020006","MEDICAL - EMERGENCY","MEDICAL - EMERGENCY","904 N MAIN ST","",""
"08/08/2018","16:17","218CR0020007","DISTURBANCE","DISTURBANCE","31 W LAPLATTE","",""
"08/08/2018","16:30","218CR0020008","ALL OTHER","ALL OTHER","225 N ALASKA","",""
"08/08/2018","16:46","218CR0020009","FRAUD","FRAUD","225 N ALASKA","",""
"08/08/2018","17:06","218CR0020010","WELFARE CHECK","WELFARE CHECK","1125 S MAIN #107","",""
"08/08/2018","17:09","218CR0020011","DISTURBANCE","DISTURBANCE","31 W LAPLATTE","",""
"08/08/2018","17:26","218CR0020012","WELFARE CHECK","WELFARE CHECK","3200 BAYARD ST","",""
"08/08/2018","17:29","218CR0020013","ALL OTHER","ALL OTHER","1864 GEORGIA","",""
"08/08/2018","17:34","218CR0020014","WELFARE CHECK","WELFARE CHECK","GRAND AND FLORENCE","",""
"08/08/2018","17:37","218CR0020015","T/S","T/S @ 2400 BLK HARRISON AVE","2400 BLK HARRISON AVE","",""
"08/08/2018","17:41","218CR0020016","HARASSMENT","HARASSMENT","225 N ALASKA","",""
"08/08/2018","17:48","218CR0020017","THEFT","THEFT, ALL OTHERS","700 S MONTANA CAR TUNE AUTO","",""
"08/08/2018","17:49","218CR0020018","BURGLARY","BURGLARY","619 S IDAHO","",""
"08/08/2018","18:04","218CR0020019","CIVIL STANDBY","CIVIL STANDBY","225 N ALASKA","",""
"08/08/2018","18:16","218CR0020020","SUSPICIOUS ACTIVITY","SUSPICIOUS ACTIVITY","400 N MAIN FEDERAL BUILDING","",""
"08/08/2018","18:18","218CR0020021","ALARM - FIRE","ALARM - FIRE","206 W GRANITE","",""
"08/08/2018","18:22","218CR0020022","MEDICAL - EMERGENCY","MEDICAL - EMERGENCY","721 HOBSON #4","",""
"08/08/2018","18:25","218CR0020023","ALL OTHER","ALL OTHER","2 1/2 E COPPER","",""
"08/08/2018","18:38","218CR0020024","CITIZEN AID","CITIZEN AID","1302 ADAMS","",""
"08/08/2018","18:48","218CR0020025","RESTRAINING ORDER VIOLATION","PFMA - MINOR INJ/PHYSICAL CONT","1825 GAYLORD","",""
"08/08/2018","19:08","218CR0020026","MEDICAL - EMERGENCY","MEDICAL - EMERGENCY","104 N HENRY","",""
"08/08/2018","19:15","218CR0020027","UNKNOWN PROBLEM","UNKNOWN PROBLEM","901 E FRONT ST","",""
"08/08/2018","19:29","218CR0020028","SUSPICIOUS ACTIVITY","SUSPICIOUS ACTIVITY","2200 BLK SILVERBOW BLVD","",""
"08/08/2018","19:32","218CR0020029","T/S","T/S","LOCUST AND STUART","",""
"08/08/2018","19:34","218CR0020030","TRAFFIC","CRIMINAL CONTEMPT","2015 WALNUT","ARREST(s) MADE",""
"08/08/2018","19:36","218CR0020031","MEDICAL - EMERGENCY","MEDICAL - EMERGENCY","520 W PARK ST","",""
"08/08/2018","19:43","218CR0020032","CIVIL PAPER SERVICE","CIVIL PAPER SERVICE","303 N WASHINGTON","",""
"08/08/2018","19:46","218CR0020033","ASSIST OTHER AGENCY","ASSIST OTHER AGENCY","","",""
"08/08/2018","19:52","218CR0020034","THEFT","THEFT","16 W GALENA APT K","",""
"08/08/2018","19:53","218CR0020035","DISTURBANCE","DISTURBANCE","225 S IDAHO OLD ST JAMES HOSP","",""
"08/08/2018","20:04","218CR0020036","INTOXICATED PERSON","INTOXICATED PERSON","1800 BLK HARRISON","",""
"08/08/2018","20:27","218CR0020037","OPEN BUILDING","OPEN BUILDING","901 S WASHINGTON #14","",""
"08/08/2018","20:44","218CR0020038","FOUND PROPERTY","FOUND PROPERTY","************","",""
"08/08/2018","20:48","218CR0020039","T/S","CRIMINAL CONTEMPT","FRONT AND MARYLAND","ARREST(s) MADE",""
"08/08/2018","21:07","218CR0020040","FIRE - STRUCTURE","FIRE - STRUCTURE","935 ZARELDA","",""
"08/08/2018","21:14","218CR0020041","MEDICAL - EMERGENCY","MEDICAL - EMERGENCY","633 S MAIN ST","",""
"08/08/2018","21:16","218CR0020042","ALARM - BURGLARY","ALARM - BURGLARY","************","",""
"08/08/2018","21:18","218CR0020043","SUSPICIOUS ACTIVITY","SUSPICIOUS ACTIVITY","1200 BLK E FIRST ST","",""
"08/08/2018","21:21","218CR0020044","MEDICAL - EMERGENCY","MEDICAL - EMERGENCY","904 N MAIN ST","",""
"08/08/2018","21:25","218CR0020045","THEFT","THEFT, ALL OTHERS","3825 GREEN LANE","",""
"08/08/2018","21:27","218CR0020046","SUSPICIOUS ACTIVITY","SUSPICIOUS ACTIVITY","721 PLACER ST","",""
"08/08/2018","22:03","218CR0020047","SUSPICIOUS ACTIVITY","SUSPICIOUS ACTIVITY","1370 HARRISON TOWN PUMP","",""
"08/08/2018","22:29","218CR0020048","T/S","T/S","COMMUNITY HEALTH","",""
"08/08/2018","22:39","218CR0020049","T/S","T/S @ MONTANA ST AND IRON","MONTANA ST AND IRON","",""
"08/08/2018","22:47","218CR0020050","SUSPICIOUS ACTIVITY","DISORDERLY CONDUCT","ATLANTIC AND FIRST","",""
"08/08/2018","22:54","218CR0020051","T/S","NO LIABILITY INSURANCE IN EFF.","916 E FRONT GILLIGANS","",""
"08/08/2018","23:06","218CR0020052","SUSPICIOUS ACTIVITY","SUSPICIOUS ACTIVITY","MT CON","",""
"08/08/2018","23:18","218CR0020053","SUSPICIOUS ACTIVITY","SUSPICIOUS ACTIVITY","NEVADA AND ALUMINUM STS","",""
"08/08/2018","23:42","218CR0020054","VANDALISM/CRIMINAL MISCHIEF","VANDALISM/CRIMINAL MISCHIEF","1603 PHILLIPS","",""
"08/08/2018","23:55","218CR0020055","SUSPICIOUS ACTIVITY","SUSPICIOUS ACTIVITY","CLARKS PARK","",""
"08/09/2018","00:02","218CR0020056","SUSPICIOUS ACTIVITY","SUSPICIOUS ACTIVITY","3500 WHITEWAY HAWTHORNE CENTER","",""
"08/09/2018","00:22","218CR0020057","MEDICAL - EMERGENCY","MEDICAL - EMERGENCY","913 EMPIRE","",""
"08/09/2018","00:57","218CR0020058","SUSPICIOUS ACTIVITY","DISORDERLY CONDUCT","1246 E FARRELL","ARREST(s) MADE",""
"08/09/2018","01:05","218CR0020059","MEDICAL - EMERGENCY","MEDICAL - EMERGENCY","907 SILVERBOW HOMES","",""
"08/09/2018","01:27","218CR0020060","MEDICAL - EMERGENCY","MEDICAL - EMERGENCY","1 W PARK","",""
"08/09/2018","01:29","218CR0020061","JUVENILE MISC","JUVENILE MISC","************","",""
"08/09/2018","01:43","218CR0020062","SUSPICIOUS ACTIVITY","SUSPICIOUS ACTIVITY","2000 BLK S IDAHO","",""
"08/09/2018","01:57","218CR0020063","ALL OTHER","ALL OTHER","406 W MERCURY","",""
"08/09/2018","03:17","218CR0020064","ATL","ATL","900 BLK N EXCELSIOR","",""
"08/09/2018","03:38","218CR0020065","SUSPICIOUS ACTIVITY","SUSPICIOUS ACTIVITY","900 BLK E FIRST ST","",""
"08/09/2018","05:03","218CR0020066","SUSPICIOUS ACTIVITY","SUSPICIOUS ACTIVITY","2953 HANSEN RD","",""
"08/09/2018","06:39","218CR0020067","SUSPICIOUS ACTIVITY","SUSPICIOUS ACTIVITY","1800 MEADOWLARK LANE","",""
"08/09/2018","07:11","218CR0020068","THEFT","THEFT","100 E FRONT","",""
"08/09/2018","07:13","218CR0020069","SUSPICIOUS ACTIVITY","SUSPICIOUS ACTIVITY","200 BLK W BROADWAY","",""
"08/09/2018","07:15","218CR0020070","UNWANTED PERSON","UNWANTED PERSON","************","",""
 
Tuesday the 21st. Affiliate Marketing.
Copyright 2012

©